| time (UTC) | temp C | wind direction | speed KPH | gust KPH | rain 1hr cm | rain 24hr cm | rain mn cm | humidity % | barometer mb |
| 20260510020021 | 16 | 302 | 19.3 | 29.0 | 0.00 | 0.00 | 0.00 | 74 | 998.3 |
| 20260510014519 | 17 | 355 | 16.1 | 24.1 | 0.00 | 0.00 | 0.00 | 72 | 998.0 |
| 20260510013019 | 17 | 358 | 17.7 | 29.0 | 0.00 | 0.00 | 0.00 | 72 | 997.9 |
| 20260510011527 | 17 | 25 | 19.3 | 25.7 | 0.00 | 0.00 | 0.00 | 71 | 998.2 |
| 20260510010019 | 17 | 15 | 22.5 | 38.6 | 0.00 | 0.00 | 0.00 | 70 | 998.0 |
| 20260510004512 | 17 | 336 | 17.7 | 30.6 | 0.00 | 0.00 | 0.00 | 68 | 998.2 |
| 20260510003110 | 17 | 12 | 14.5 | 27.4 | 0.00 | 0.00 | 0.00 | 71 | 998.1 |
| 20260510001556 | 16 | 349 | 14.5 | 30.6 | 0.00 | 0.00 | 0.00 | 72 | 998.1 |
| 20260510000100 | 16 | 22 | 16.1 | 35.4 | 0.00 | 0.00 | 0.00 | 71 | 998.3 |
| 20260509234603 | 16 | 18 | 19.3 | 30.6 | 0.00 | 0.00 | 0.00 | 73 | 998.4 |
| 20260509233042 | 16 | 22 | 16.1 | 27.4 | 0.00 | 0.00 | 0.00 | 73 | 998.5 |
| 20260509231503 | 16 | 356 | 25.7 | 38.6 | 0.00 | 0.00 | 0.00 | 70 | 998.6 |
| 20260509230016 | 16 | 332 | 19.3 | 40.2 | 0.00 | 0.00 | 0.00 | 71 | 998.6 |
| 20260509224532 | 16 | 337 | 20.9 | 35.4 | 0.00 | 0.00 | 0.00 | 73 | 998.7 |
| 20260509223049 | 16 | 1 | 20.9 | 33.8 | 0.00 | 0.00 | 0.00 | 72 | 998.8 |
| 20260509221502 | 16 | 3 | 20.9 | 35.4 | 0.00 | 0.00 | 0.00 | 75 | 998.6 |
| 20260509220002 | 16 | 353 | 17.7 | 32.2 | 0.00 | 0.00 | 0.00 | 79 | 998.8 |
| 20260509214553 | 16 | 340 | 17.7 | 30.6 | 0.00 | 0.00 | 0.00 | 80 | 998.9 |
| 20260509213002 | 16 | 29 | 12.9 | 24.1 | 0.00 | 0.00 | 0.00 | 78 | 998.7 |
| 20260509211540 | 15 | 353 | 12.9 | 25.7 | 0.00 | 0.00 | 0.00 | 78 | 998.8 |
| 20260509210016 | 15 | 19 | 14.5 | 22.5 | 0.00 | 0.00 | 0.00 | 75 | 998.7 |
| 20260509204600 | 15 | 16 | 14.5 | 27.4 | 0.00 | 0.00 | 0.00 | 75 | 998.8 |
| 20260509203001 | 15 | 7 | 11.3 | 25.7 | 0.00 | 0.00 | 0.00 | 76 | 998.9 |
| 20260509201559 | 15 | 10 | 14.5 | 24.1 | 0.00 | 0.00 | 0.00 | 77 | 998.6 |
| 20260509194540 | 14 | 31 | 12.9 | 25.7 | 0.00 | 0.00 | 0.00 | 77 | 998.4 |
| 20260509193019 | 14 | 357 | 17.7 | 24.1 | 0.00 | 0.00 | 0.00 | 76 | 998.2 |
| 20260509191551 | 14 | 357 | 16.1 | 32.2 | 0.00 | 0.00 | 0.00 | 73 | 998.4 |
| 20260509190034 | 14 | 343 | 20.9 | 35.4 | 0.00 | 0.00 | 0.00 | 74 | 997.9 |
| 20260509184603 | 14 | 37 | 16.1 | 33.8 | 0.00 | 0.00 | 0.00 | 74 | 998.0 |
| 20260509183057 | 13 | 3 | 12.9 | 27.4 | 0.00 | 0.00 | 0.00 | 78 | 998.0 |
| 20260509181544 | 13 | 354 | 9.7 | 20.9 | 0.00 | 0.00 | 0.00 | 79 | 998.0 |
| 20260509180023 | 14 | 353 | 14.5 | 24.1 | 0.00 | 0.00 | 0.00 | 78 | 997.9 |
| 20260509174514 | 14 | 16 | 12.9 | 22.5 | 0.00 | 0.00 | 0.00 | 80 | 997.8 |
| 20260509173015 | 14 | 8 | 17.7 | 32.2 | 0.00 | 0.00 | 0.00 | 80 | 997.9 |
| 20260509171512 | 14 | 344 | 19.3 | 41.8 | 0.00 | 0.00 | 0.00 | 81 | 998.0 |
| 20260509170011 | 14 | 351 | 22.5 | 35.4 | 0.00 | 0.00 | 0.00 | 80 | 998.0 |
| 20260509164512 | 14 | 358 | 22.5 | 37.0 | 0.00 | 0.00 | 0.00 | 78 | 997.9 |
| 20260509163009 | 14 | 36 | 16.1 | 35.4 | 0.00 | 0.00 | 0.00 | 78 | 997.7 |
| 20260509161509 | 14 | 351 | 19.3 | 32.2 | 0.00 | 0.00 | 0.00 | 77 | 997.7 |
| 20260509160009 | 14 | 22 | 20.9 | 35.4 | 0.00 | 0.00 | 0.00 | 75 | 997.5 |
| 20260509154502 | 14 | 31 | 20.9 | 38.6 | 0.00 | 0.00 | 0.00 | 75 | 997.6 |
| 20260509153003 | 14 | 5 | 22.5 | 35.4 | 0.00 | 0.00 | 0.00 | 75 | 997.7 |
| 20260509151501 | 14 | 351 | 22.5 | 32.2 | 0.00 | 0.00 | 0.00 | 75 | 997.9 |
| 20260509150059 | 14 | 20 | 22.5 | 38.6 | 0.00 | 0.00 | 0.00 | 76 | 998.1 |
| 20260509144559 | 14 | 19 | 20.9 | 35.4 | 0.00 | 0.00 | 0.00 | 77 | 998.0 |
| 20260509143054 | 14 | 9 | 19.3 | 30.6 | 0.00 | 0.00 | 0.00 | 76 | 998.4 |
| 20260509141531 | 14 | 21 | 19.3 | 32.2 | 0.00 | 0.00 | 0.00 | 77 | 998.3 |
| 20260509140016 | 14 | 5 | 22.5 | 33.8 | 0.00 | 0.00 | 0.00 | 78 | 998.5 |
| 20260509134602 | 14 | 359 | 22.5 | 33.8 | 0.00 | 0.00 | 0.00 | 81 | 998.3 |
| 20260509133012 | 14 | 4 | 19.3 | 30.6 | 0.00 | 0.00 | 0.00 | 84 | 998.4 |
| 20260509131548 | 14 | 359 | 19.3 | 33.8 | 0.00 | 0.00 | 0.00 | 85 | 998.3 |
| 20260509124526 | 14 | 17 | 17.7 | 33.8 | 0.00 | 0.00 | 0.00 | 82 | 998.1 |
| 20260509123019 | 14 | 28 | 17.7 | 30.6 | 0.00 | 0.00 | 0.00 | 82 | 998.1 |
| 20260509121557 | 14 | 12 | 17.7 | 32.2 | 0.00 | 0.00 | 0.00 | 81 | 998.3 |
| 20260509120030 | 14 | 44 | 17.7 | 30.6 | 0.00 | 0.00 | 0.00 | 79 | 998.7 |
| 20260509114529 | 14 | 11 | 25.7 | 41.8 | 0.00 | 0.00 | 0.00 | 81 | 998.8 |
| 20260509113001 | 14 | 20 | 29.0 | 45.1 | 0.00 | 0.00 | 0.00 | 82 | 998.8 |
| 20260509111523 | 14 | 24 | 24.1 | 40.2 | 0.00 | 0.00 | 0.00 | 79 | 998.8 |
| 20260509110018 | 15 | 339 | 24.1 | 49.9 | 0.00 | 0.00 | 0.00 | 76 | 998.9 |
| 20260509104549 | 15 | 344 | 24.1 | 48.3 | 0.00 | 0.00 | 0.00 | 77 | 998.9 |
| 20260509103117 | 14 | 31 | 25.7 | 43.5 | 0.00 | 0.00 | 0.00 | 79 | 998.9 |
| 20260509100028 | 14 | 23 | 24.1 | 53.1 | 0.00 | 0.00 | 0.00 | 78 | 999.0 |
| 20260509093030 | 15 | 357 | 30.6 | 45.1 | 0.00 | 0.23 | 0.00 | 79 | 999.0 |
| 20260509091521 | 15 | 8 | 24.1 | 41.8 | 0.00 | 0.23 | 0.00 | 79 | 998.8 |
| 20260509090018 | 15 | 20 | 24.1 | 37.0 | 0.00 | 0.23 | 0.00 | 78 | 998.8 |
| 20260509084524 | 15 | 354 | 25.7 | 38.6 | 0.00 | 0.64 | 0.00 | 80 | 999.0 |
| 20260509083014 | 15 | 360 | 20.9 | 41.8 | 0.00 | 0.64 | 0.00 | 78 | 998.8 |
| 20260509081526 | 15 | 339 | 24.1 | 33.8 | 0.00 | 0.64 | 0.00 | 79 | 999.0 |
| 20260509080059 | 15 | 19 | 19.3 | 56.3 | 0.00 | 0.64 | 0.00 | 78 | 998.9 |
| 20260509074542 | 15 | 29 | 29.0 | 54.7 | 0.00 | 0.69 | 0.00 | 81 | 998.4 |
| 20260509073009 | 15 | 322 | 27.4 | 45.1 | 0.00 | 0.69 | 0.00 | 82 | 998.5 |
| 20260509071525 | 15 | 336 | 27.4 | 53.1 | 0.00 | 0.69 | 0.00 | 81 | 998.3 |
| 20260509070019 | 15 | 351 | 38.6 | 54.7 | 0.00 | 0.69 | 0.00 | 81 | 998.0 |
| 20260509063046 | 15 | 11 | 30.6 | 54.7 | 0.00 | 0.86 | 0.00 | 81 | 998.2 |
| 20260509061509 | 15 | 352 | 33.8 | 62.8 | 0.00 | 0.86 | 0.00 | 81 | 998.1 |
| 20260509060057 | 15 | 352 | 27.4 | 53.1 | 0.00 | 0.86 | 0.00 | 81 | 997.8 |
| 20260509054525 | 15 | 355 | 32.2 | 51.5 | 0.00 | 0.86 | 0.00 | 81 | 997.8 |
| 20260509051601 | 15 | 9 | 29.0 | 45.1 | 0.00 | 0.86 | 0.00 | 80 | 998.2 |
| 20260509050011 | 15 | 19 | 22.5 | 38.6 | 0.00 | 0.86 | 0.00 | 80 | 998.1 |
| 20260509044548 | 15 | 18 | 29.0 | 43.5 | 0.00 | 0.86 | 0.00 | 80 | 998.2 |
| 20260509043046 | 16 | 31 | 29.0 | 51.5 | 0.00 | 0.86 | 0.00 | 80 | 998.2 |
| 20260509041527 | 15 | 350 | 27.4 | 56.3 | 0.00 | 0.86 | 0.00 | 82 | 998.2 |
| 20260509040014 | 16 | 2 | 32.2 | 56.3 | 0.00 | 0.86 | 0.00 | 80 | 997.9 |
| 20260509034546 | 16 | 14 | 32.2 | 59.5 | 0.00 | 0.86 | 0.00 | 80 | 997.9 |
| 20260509033025 | 16 | 356 | 33.8 | 56.3 | 0.00 | 0.86 | 0.00 | 81 | 998.1 |
| 20260509031547 | 16 | 31 | 33.8 | 53.1 | 0.00 | 0.86 | 0.00 | 83 | 998.0 |
| 20260509030032 | 16 | 4 | 24.1 | 38.6 | 0.00 | 0.86 | 0.00 | 83 | 997.8 |
| 20260509024600 | 16 | 349 | 32.2 | 46.7 | 0.00 | 0.86 | 0.00 | 84 | 997.9 |
| 20260509023004 | 16 | 9 | 29.0 | 49.9 | 0.00 | 0.86 | 0.00 | 84 | 997.7 |
| 20260509021534 | 16 | 23 | 33.8 | 49.9 | 0.00 | 0.86 | 0.00 | 85 | 997.9 |